sat.trackr.live / text

‹ back to catalog

STARLINK-37009

NORAD 68208 · 2026-053B

PAYLOAD ACTIVE UNKNOWN

§ Identity

Operator
Country
US
Launch date
2026-03-17
Launch site
AFWTR
Launch vehicle
Mass (kg)
RCS (m²)

Purposes: comms

External: N2YO · Heavens-Above · Gunter

§ Orbital elements

Epoch: 2026-05-25T02:16:08.804640Z

Period
93.91 min
Inclination
97.2867°
Eccentricity
0.0001746
Mean motion
15.33449306 rev/d
Perigee alt
464.3 km
Apogee alt
466.7 km
Semi-major
6,843.7 km
B*
5.2453e-4
RAAN
20.4885°
Arg perigee
94.8389°
Mean anomaly
265.3053°
Rev number
1,192

§ Raw data

STARLINK-370091 68208U 26053B   26145.09454635  .00016899  00000+0  52453-3 0  99982 68208  97.2867  20.4885 0001746  94.8389 265.3053 15.33449306 11926

JSON: /api/v1/satellites/68208 · /tle

For live sub-satellite position, see the globe view (requires WebGL).

§ Visibility from observer

Set your observer location to see the next 7 days of passes ≥ 10°. The values pass through the URL so the page stays shareable.

No JS? Fill the form by hand. The geolocation button needs JavaScript.